{"data":{"norad_id":67083,"epoch":"2026-05-25T02:49:13.694304Z","epoch_age_seconds":71708,"freshness":"FRESH","line1":"1 67083U 25298J   26145.11751961  .00003643  00000+0  31289-3 0  9990","line2":"2 67083  70.0006 181.8249 0002667 279.1557  80.9300 14.98338098 24659","mean_motion":14.98338098,"eccentricity":0.0002667,"inclination_deg":70.0006,"raan_deg":181.8249,"arg_perigee_deg":279.1557,"mean_anomaly_deg":80.93,"bstar":0.00031289,"rev_number":2465,"period_min":96.106479700552,"perigee_km":570.17723889497,"apogee_km":573.88445842545,"semimajor_km":6950.1678486602,"source":"CELESTRAK","updated_at":"2026-05-25T13:38:21.466589Z"}}